Time,TemperatureF,DewpointF,PressureIn,WindDirection,WindDirectionDegrees,WindSpeedMPH,WindSpeedGustMPH,Humidity,HourlyPrecipIn,Conditions,Clouds,dailyrainin,SolarRadiationWatts/m^2,SoftwareType,DateUTC
2013-01-05 00:04:00,72.7,65.8,30.03,ESE,117,11.0,12.0,79,0.00,,,0.00,0,Wunderground v.1.15,2013-01-05 10:04:00,
2013-01-05 00:09:00,72.7,66.2,30.03,ENE,57,11.0,11.0,80,0.00,,,0.00,0,Wunderground v.1.15,2013-01-05 10:09:00,
2013-01-05 00:14:00,72.6,65.7,30.03,NE,56,11.0,17.0,79,0.00,,,0.00,0,Wunderground v.1.15,2013-01-05 10:14:00,
2013-01-05 00:19:00,72.6,65.7,30.03,NE,53,11.0,11.0,79,0.00,,,0.00,0,Wunderground v.1.15,2013-01-05 10:19:00,
2013-01-05 00:24:00,72.7,66.2,30.03,East,94,10.0,21.0,80,0.00,,,0.00,0,Wunderground v.1.15,2013-01-05 10:24:00,
2013-01-05 00:34:00,71.3,65.5,30.03,East,91,10.0,11.0,82,0.00,,,0.00,0,Wunderground v.1.15,2013-01-05 10:34:00,
2013-01-05 00:44:00,71.4,66.3,30.03,ENE,61,10.0,21.0,84,0.00,,,0.00,0,Wunderground v.1.15,2013-01-05 10:44:00,
2013-01-05 00:49:00,71.6,66.2,30.03,ENE,74,11.0,11.0,83,0.00,,,0.00,0,Wunderground v.1.15,2013-01-05 10:49:00,
2013-01-05 00:54:00,71.4,66.3,30.03,NE,42,10.0,11.0,84,0.00,,,0.00,0,Wunderground v.1.15,2013-01-05 10:54:00,
2013-01-05 00:59:00,71.3,66.2,30.03,ENE,72,10.0,10.0,84,0.00,,,0.00,0,Wunderground v.1.15,2013-01-05 10:59:00,
2013-01-05 01:04:00,71.4,66.3,30.03,ENE,65,10.0,15.0,84,0.00,,,0.00,0,Wunderground v.1.15,2013-01-05 11:04:00,
2013-01-05 01:09:00,71.8,66.0,30.03,NE,52,11.0,11.0,82,0.00,,,0.00,0,Wunderground v.1.15,2013-01-05 11:09:00,
2013-01-05 01:14:00,72.2,66.0,30.03,NE,41,12.0,12.0,81,0.00,,,0.00,0,Wunderground v.1.15,2013-01-05 11:14:00,
2013-01-05 01:19:00,72.4,66.2,30.03,East,91,10.0,10.0,81,0.00,,,0.00,0,Wunderground v.1.15,2013-01-05 11:19:00,
2013-01-05 01:24:00,72.4,65.9,30.02,NE,49,9.0,10.0,80,0.00,,,0.00,0,Wunderground v.1.15,2013-01-05 11:24:00,
2013-01-05 01:29:00,72.5,66.0,30.03,NE,53,11.0,15.0,80,0.00,,,0.00,0,Wunderground v.1.15,2013-01-05 11:29:00,
2013-01-05 01:34:00,72.4,65.9,30.02,ENE,59,11.0,15.0,80,0.00,,,0.00,0,Wunderground v.1.15,2013-01-05 11:34:00,
2013-01-05 01:39:00,72.4,65.9,30.03,East,79,9.0,14.0,80,0.00,,,0.00,0,Wunderground v.1.15,2013-01-05 11:39:00,
2013-01-05 01:44:00,72.4,65.9,30.02,ENE,76,10.0,15.0,80,0.00,,,0.00,0,Wunderground v.1.15,2013-01-05 11:44:00,
2013-01-05 01:54:00,72.5,65.6,30.02,East,101,11.0,17.0,79,0.00,,,0.00,0,Wunderground v.1.15,2013-01-05 11:54:00,
2013-01-05 01:59:00,72.0,66.2,30.03,NE,53,13.0,15.0,82,0.00,,,0.01,0,Wunderground v.1.15,2013-01-05 11:59:00,
2013-01-05 02:04:00,70.8,65.7,30.02,NE,55,12.0,15.0,84,0.16,,,0.02,0,Wunderground v.1.15,2013-01-05 12:04:00,
2013-01-05 02:09:00,70.3,65.9,30.02,ENE,63,9.0,9.0,86,0.07,,,0.02,0,Wunderground v.1.15,2013-01-05 12:09:00,
2013-01-05 02:19:00,70.1,66.0,30.01,NE,46,7.0,14.0,87,0.00,,,0.02,0,Wunderground v.1.15,2013-01-05 12:19:00,
2013-01-05 02:24:00,70.3,66.2,30.01,NE,53,7.0,14.0,87,0.00,,,0.02,0,Wunderground v.1.15,2013-01-05 12:24:00,
2013-01-05 02:29:00,70.4,66.3,30.02,ESE,105,9.0,15.0,87,0.28,,,0.04,0,Wunderground v.1.15,2013-01-05 12:29:00,
2013-01-05 02:34:00,69.7,65.7,30.01,ESE,109,12.0,15.0,87,0.08,,,0.04,0,Wunderground v.1.15,2013-01-05 12:34:00,
2013-01-05 02:39:00,69.2,65.2,30.01,ENE,72,11.0,11.0,87,0.06,,,0.05,0,Wunderground v.1.15,2013-01-05 12:39:00,
2013-01-05 02:49:00,69.8,66.4,30.02,East,86,6.0,6.0,89,0.05,,,0.05,0,Wunderground v.1.15,2013-01-05 12:49:00,
2013-01-05 02:59:00,70.2,66.8,30.01,ENE,74,9.0,9.0,89,0.00,,,0.05,0,Wunderground v.1.15,2013-01-05 12:59:00,
2013-01-05 03:04:00,70.2,66.8,30.01,East,95,9.0,13.0,89,0.00,,,0.05,0,Wunderground v.1.15,2013-01-05 13:04:00,
2013-01-05 03:09:00,70.3,66.9,30.01,ENE,75,9.0,12.0,89,0.00,,,0.05,0,Wunderground v.1.15,2013-01-05 13:09:00,
2013-01-05 03:14:00,70.5,66.8,30.01,East,85,9.0,12.0,88,0.00,,,0.05,0,Wunderground v.1.15,2013-01-05 13:14:00,
2013-01-05 03:19:00,70.8,67.1,30.01,East,92,9.0,11.0,88,0.00,,,0.05,0,Wunderground v.1.15,2013-01-05 13:19:00,
2013-01-05 03:24:00,71.0,66.9,30.01,ENE,67,11.0,11.0,87,0.00,,,0.05,0,Wunderground v.1.15,2013-01-05 13:24:00,
2013-01-05 03:29:00,71.2,66.8,30.01,East,87,10.0,10.0,86,0.00,,,0.05,0,Wunderground v.1.15,2013-01-05 13:29:00,
2013-01-05 03:34:00,71.4,67.0,30.01,ENE,76,9.0,10.0,86,0.00,,,0.05,0,Wunderground v.1.15,2013-01-05 13:34:00,
2013-01-05 03:39:00,71.1,67.0,30.01,ESE,112,10.0,10.0,87,0.00,,,0.05,0,Wunderground v.1.15,2013-01-05 13:39:00,
2013-01-05 03:44:00,70.9,66.8,30.01,ESE,117,9.0,10.0,87,0.00,,,0.05,0,Wunderground v.1.15,2013-01-05 13:44:00,
2013-01-05 03:49:00,70.8,66.7,30.01,East,79,9.0,9.0,87,0.00,,,0.05,0,Wunderground v.1.15,2013-01-05 13:49:00,
2013-01-05 03:54:00,70.7,66.6,30.01,East,88,9.0,13.0,87,0.00,,,0.05,0,Wunderground v.1.15,2013-01-05 13:54:00,
2013-01-05 03:59:00,70.8,66.7,30.01,ENE,72,10.0,10.0,87,0.00,,,0.05,0,Wunderground v.1.15,2013-01-05 13:59:00,
2013-01-05 04:09:00,71.2,66.5,30.00,East,81,12.0,12.0,85,0.00,,,0.05,0,Wunderground v.1.15,2013-01-05 14:09:00,
2013-01-05 04:14:00,71.5,66.8,30.01,ENE,72,9.0,12.0,85,0.00,,,0.05,0,Wunderground v.1.15,2013-01-05 14:14:00,
2013-01-05 04:19:00,71.6,66.8,30.01,ENE,62,9.0,9.0,85,0.00,,,0.05,0,Wunderground v.1.15,2013-01-05 14:19:00,
2013-01-05 04:24:00,71.7,66.6,30.01,East,100,10.0,10.0,84,0.00,,,0.05,0,Wunderground v.1.15,2013-01-05 14:24:00,
2013-01-05 04:29:00,71.6,66.2,30.01,East,80,12.0,12.0,83,0.00,,,0.05,0,Wunderground v.1.15,2013-01-05 14:29:00,
2013-01-05 04:34:00,71.7,66.3,30.01,ESE,115,10.0,12.0,83,0.00,,,0.05,0,Wunderground v.1.15,2013-01-05 14:34:00,
2013-01-05 04:39:00,71.7,66.3,30.01,ESE,117,9.0,15.0,83,0.00,,,0.05,0,Wunderground v.1.15,2013-01-05 14:39:00,
2013-01-05 04:44:00,71.9,66.5,30.01,ESE,103,11.0,17.0,83,0.00,,,0.05,0,Wunderground v.1.15,2013-01-05 14:44:00,
2013-01-05 04:49:00,71.8,66.0,30.01,SE,128,12.0,12.0,82,0.00,,,0.05,0,Wunderground v.1.15,2013-01-05 14:49:00,
2013-01-05 04:54:00,71.9,66.1,30.01,ESE,119,13.0,14.0,82,0.00,,,0.05,0,Wunderground v.1.15,2013-01-05 14:54:00,
2013-01-05 04:59:00,72.1,66.6,30.01,East,90,13.0,13.0,83,0.00,,,0.05,0,Wunderground v.1.15,2013-01-05 14:59:00,
2013-01-05 05:09:00,71.7,66.6,30.01,ESE,109,10.0,12.0,84,0.00,,,0.05,0,Wunderground v.1.15,2013-01-05 15:09:00,
2013-01-05 05:14:00,71.6,66.5,30.01,ESE,115,10.0,12.0,84,0.00,,,0.05,0,Wunderground v.1.15,2013-01-05 15:14:00,
2013-01-05 05:19:00,71.6,66.2,30.01,East,94,12.0,12.0,83,0.00,,,0.05,0,Wunderground v.1.15,2013-01-05 15:19:00,
2013-01-05 05:24:00,71.7,66.3,30.01,East,82,12.0,12.0,83,0.00,,,0.05,0,Wunderground v.1.15,2013-01-05 15:24:00,
2013-01-05 05:29:00,71.7,66.3,30.02,ENE,71,11.0,16.0,83,0.00,,,0.05,0,Wunderground v.1.15,2013-01-05 15:29:00,
2013-01-05 05:39:00,71.9,66.1,30.01,East,92,11.0,13.0,82,0.00,,,0.05,0,Wunderground v.1.15,2013-01-05 15:39:00,
2013-01-05 05:44:00,71.9,66.1,30.01,East,94,10.0,13.0,82,0.00,,,0.05,0,Wunderground v.1.15,2013-01-05 15:44:00,
2013-01-05 05:49:00,71.9,66.1,30.02,East,98,10.0,10.0,82,0.00,,,0.05,0,Wunderground v.1.15,2013-01-05 15:49:00,
2013-01-05 05:54:00,71.8,66.4,30.01,East,100,11.0,14.0,83,0.00,,,0.05,0,Wunderground v.1.15,2013-01-05 15:54:00,
2013-01-05 06:04:00,71.7,66.3,30.01,East,85,9.0,15.0,83,0.00,,,0.05,0,Wunderground v.1.15,2013-01-05 16:04:00,
2013-01-05 06:14:00,71.7,65.9,30.02,ENE,61,12.0,12.0,82,0.00,,,0.05,0,Wunderground v.1.15,2013-01-05 16:14:00,
2013-01-05 06:19:00,71.9,66.1,30.02,ESE,111,11.0,15.0,82,0.00,,,0.05,0,Wunderground v.1.15,2013-01-05 16:19:00,
2013-01-05 06:24:00,72.0,66.2,30.02,ENE,77,10.0,15.0,82,0.00,,,0.05,0,Wunderground v.1.15,2013-01-05 16:24:00,
2013-01-05 06:29:00,72.0,66.2,30.02,East,84,10.0,14.0,82,0.00,,,0.05,0,Wunderground v.1.15,2013-01-05 16:29:00,
2013-01-05 06:34:00,72.0,66.2,30.02,East,80,11.0,14.0,82,0.00,,,0.05,0,Wunderground v.1.15,2013-01-05 16:34:00,
2013-01-05 06:39:00,72.1,66.3,30.02,East,92,11.0,11.0,82,0.00,,,0.05,0,Wunderground v.1.15,2013-01-05 16:39:00,
2013-01-05 06:49:00,71.6,66.5,30.02,East,92,11.0,11.0,84,0.20,,,0.07,0,Wunderground v.1.15,2013-01-05 16:49:00,
2013-01-05 06:54:00,71.2,66.5,30.02,East,87,10.0,11.0,85,0.07,,,0.07,0,Wunderground v.1.15,2013-01-05 16:54:00,
2013-01-05 06:59:00,71.0,66.6,30.03,East,91,9.0,9.0,86,0.06,,,0.08,0,Wunderground v.1.15,2013-01-05 16:59:00,
2013-01-05 07:09:00,70.8,66.4,30.03,East,82,10.0,10.0,86,0.05,,,0.08,0,Wunderground v.1.15,2013-01-05 17:09:00,
2013-01-05 07:14:00,70.7,66.6,30.04,SSE,167,10.0,10.0,87,0.04,,,0.09,7,Wunderground v.1.15,2013-01-05 17:14:00,
2013-01-05 07:19:00,70.3,66.2,30.03,East,99,11.0,15.0,87,0.04,,,0.09,53,Wunderground v.1.15,2013-01-05 17:19:00,
2013-01-05 07:24:00,69.9,66.2,30.04,East,92,11.0,15.0,88,0.04,,,0.09,35,Wunderground v.1.15,2013-01-05 17:24:00,
2013-01-05 07:29:00,70.1,66.4,30.04,East,86,10.0,10.0,88,0.04,,,0.09,33,Wunderground v.1.15,2013-01-05 17:29:00,
2013-01-05 07:34:00,70.3,66.9,30.04,ESE,122,10.0,10.0,89,0.00,,,0.09,46,Wunderground v.1.15,2013-01-05 17:34:00,
2013-01-05 07:39:00,70.6,67.2,30.04,East,92,10.0,10.0,89,0.00,,,0.09,88,Wunderground v.1.15,2013-01-05 17:39:00,
2013-01-05 07:44:00,71.0,67.3,30.04,East,90,9.0,11.0,88,0.00,,,0.09,56,Wunderground v.1.15,2013-01-05 17:44:00,
2013-01-05 07:54:00,71.0,66.9,30.04,SE,127,9.0,13.0,87,0.00,,,0.09,88,Wunderground v.1.15,2013-01-05 17:54:00,
2013-01-05 07:59:00,71.2,67.1,30.04,ESE,111,10.0,10.0,87,0.00,,,0.09,139,Wunderground v.1.15,2013-01-05 17:59:00,
2013-01-05 08:09:00,71.2,66.8,30.05,ENE,67,10.0,10.0,86,0.00,,,0.09,149,Wunderground v.1.15,2013-01-05 18:09:00,
2013-01-05 08:14:00,71.3,66.9,30.05,NE,38,9.0,10.0,86,0.00,,,0.09,174,Wunderground v.1.15,2013-01-05 18:14:00,
2013-01-05 08:19:00,71.4,66.7,30.05,ESE,104,10.0,10.0,85,0.00,,,0.09,139,Wunderground v.1.15,2013-01-05 18:19:00,
2013-01-05 08:29:00,71.9,67.1,30.05,East,88,10.0,10.0,85,0.00,,,0.09,202,Wunderground v.1.15,2013-01-05 18:29:00,
2013-01-05 08:34:00,72.1,67.0,30.06,NE,45,10.0,11.0,84,0.00,,,0.09,77,Wunderground v.1.15,2013-01-05 18:34:00,
2013-01-05 08:39:00,72.1,67.0,30.05,ESE,107,10.0,14.0,84,0.00,,,0.09,206,Wunderground v.1.15,2013-01-05 18:39:00,
2013-01-05 08:44:00,72.2,66.7,30.06,East,101,10.0,18.0,83,0.00,,,0.10,51,Wunderground v.1.15,2013-01-05 18:44:00,
2013-01-05 08:49:00,71.2,66.5,30.05,ESE,113,11.0,13.0,85,0.00,,,0.10,144,Wunderground v.1.15,2013-01-05 18:49:00,
2013-01-05 08:54:00,70.8,66.4,30.06,SE,125,11.0,13.0,86,0.00,,,0.10,297,Wunderground v.1.15,2013-01-05 18:54:00,
2013-01-05 08:59:00,71.0,66.9,30.06,East,83,11.0,13.0,87,0.04,,,0.11,323,Wunderground v.1.15,2013-01-05 18:59:00,
2013-01-05 09:04:00,71.3,66.9,30.06,East,86,12.0,13.0,86,0.04,,,0.11,265,Wunderground v.1.15,2013-01-05 19:04:00,
2013-01-05 09:09:00,71.7,67.3,30.07,ENE,58,12.0,12.0,86,0.04,,,0.11,439,Wunderground v.1.15,2013-01-05 19:09:00,
2013-01-05 09:14:00,72.2,67.8,30.07,ENE,65,12.0,14.0,86,0.04,,,0.11,422,Wunderground v.1.15,2013-01-05 19:14:00,
2013-01-05 09:19:00,72.5,67.7,30.07,SE,132,13.0,18.0,85,0.00,,,0.11,262,Wunderground v.1.15,2013-01-05 19:19:00,
2013-01-05 09:29:00,72.3,67.2,30.07,East,88,12.0,12.0,84,0.00,,,0.11,517,Wunderground v.1.15,2013-01-05 19:29:00,
2013-01-05 09:34:00,72.0,67.2,30.06,ESE,115,11.0,12.0,85,0.00,,,0.11,364,Wunderground v.1.15,2013-01-05 19:34:00,
2013-01-05 09:44:00,72.3,67.2,30.06,East,101,13.0,15.0,84,0.00,,,0.11,490,Wunderground v.1.15,2013-01-05 19:44:00,
2013-01-05 09:49:00,72.6,67.1,30.06,East,97,11.0,11.0,83,0.00,,,0.11,264,Wunderground v.1.15,2013-01-05 19:49:00,
2013-01-05 09:54:00,72.7,67.2,30.06,ESE,118,10.0,11.0,83,0.00,,,0.11,167,Wunderground v.1.15,2013-01-05 19:54:00,
2013-01-05 09:59:00,72.7,67.2,30.06,East,91,10.0,15.0,83,0.00,,,0.11,116,Wunderground v.1.15,2013-01-05 19:59:00,
2013-01-05 10:04:00,72.1,66.6,30.06,East,88,11.0,15.0,83,0.00,,,0.11,251,Wunderground v.1.15,2013-01-05 20:04:00,
2013-01-05 10:09:00,72.1,67.3,30.06,East,100,11.0,13.0,85,0.00,,,0.11,485,Wunderground v.1.15,2013-01-05 20:09:00,
2013-01-05 10:14:00,72.2,67.8,30.05,ESE,115,9.0,13.0,86,0.00,,,0.11,225,Wunderground v.1.15,2013-01-05 20:14:00,
2013-01-05 10:19:00,72.2,67.4,30.06,ESE,103,10.0,16.0,85,0.00,,,0.11,281,Wunderground v.1.15,2013-01-05 20:19:00,
2013-01-05 10:24:00,72.6,67.8,30.05,ESE,119,11.0,16.0,85,0.00,,,0.11,881,Wunderground v.1.15,2013-01-05 20:24:00,
2013-01-05 10:29:00,73.2,68.1,30.05,NE,52,13.0,13.0,84,0.00,,,0.11,733,Wunderground v.1.15,2013-01-05 20:29:00,
2013-01-05 10:39:00,73.9,67.7,30.05,ESE,109,10.0,10.0,81,0.00,,,0.11,287,Wunderground v.1.15,2013-01-05 20:39:00,
2013-01-05 10:49:00,73.1,67.6,30.05,East,85,11.0,14.0,83,0.00,,,0.11,114,Wunderground v.1.15,2013-01-05 20:49:00,
2013-01-05 10:54:00,72.0,66.9,30.05,ESE,111,12.0,14.0,84,0.00,,,0.11,192,Wunderground v.1.15,2013-01-05 20:54:00,
2013-01-05 10:59:00,71.8,67.7,30.05,East,98,11.0,19.0,87,0.00,,,0.11,552,Wunderground v.1.15,2013-01-05 20:59:00,
2013-01-05 11:04:00,72.1,67.7,30.05,ESE,115,10.0,19.0,86,0.00,,,0.11,552,Wunderground v.1.15,2013-01-05 21:04:00,
2013-01-05 11:09:00,72.2,67.4,30.05,NE,53,11.0,15.0,85,0.00,,,0.11,98,Wunderground v.1.15,2013-01-05 21:09:00,
2013-01-05 11:19:00,72.4,67.6,30.05,ESE,107,11.0,11.0,85,0.00,,,0.11,250,Wunderground v.1.15,2013-01-05 21:19:00,
2013-01-05 11:24:00,72.3,67.5,30.05,East,97,10.0,11.0,85,0.00,,,0.11,202,Wunderground v.1.15,2013-01-05 21:24:00,
2013-01-05 11:29:00,72.3,67.5,30.05,East,81,10.0,13.0,85,0.00,,,0.11,91,Wunderground v.1.15,2013-01-05 21:29:00,
2013-01-05 11:34:00,72.3,67.2,30.05,East,84,12.0,13.0,84,0.00,,,0.11,229,Wunderground v.1.15,2013-01-05 21:34:00,
2013-01-05 11:44:00,73.5,68.0,30.04,ENE,66,10.0,11.0,83,0.00,,,0.11,257,Wunderground v.1.15,2013-01-05 21:44:00,
2013-01-05 11:54:00,73.7,67.9,30.03,East,98,11.0,11.0,82,0.00,,,0.11,250,Wunderground v.1.15,2013-01-05 21:54:00,
2013-01-05 11:59:00,74.4,68.2,30.03,ESE,105,10.0,10.0,81,0.00,,,0.11,861,Wunderground v.1.15,2013-01-05 21:59:00,
2013-01-05 12:04:00,74.4,67.8,30.03,ENE,71,10.0,14.0,80,0.00,,,0.11,200,Wunderground v.1.15,2013-01-05 22:04:00,
2013-01-05 12:09:00,73.6,67.8,30.03,ENE,71,11.0,11.0,82,0.00,,,0.11,183,Wunderground v.1.15,2013-01-05 22:09:00,
2013-01-05 12:14:00,73.0,67.5,30.02,ESE,102,10.0,11.0,83,0.00,,,0.11,158,Wunderground v.1.15,2013-01-05 22:14:00,
2013-01-05 12:24:00,72.6,67.8,30.03,ESE,110,9.0,11.0,85,0.00,,,0.11,199,Wunderground v.1.15,2013-01-05 22:24:00,
2013-01-05 12:29:00,72.3,67.5,30.03,NNE,30,10.0,10.0,85,0.00,,,0.11,271,Wunderground v.1.15,2013-01-05 22:29:00,
2013-01-05 12:34:00,71.6,67.5,30.02,NE,44,10.0,10.0,87,0.00,,,0.11,510,Wunderground v.1.15,2013-01-05 22:34:00,
2013-01-05 12:44:00,71.7,68.0,30.03,ENE,63,9.0,18.0,88,0.00,,,0.11,390,Wunderground v.1.15,2013-01-05 22:44:00,
2013-01-05 12:49:00,71.9,67.8,30.02,ENE,61,10.0,12.0,87,0.00,,,0.11,202,Wunderground v.1.15,2013-01-05 22:49:00,
2013-01-05 12:54:00,72.1,67.3,30.02,East,88,10.0,15.0,85,0.00,,,0.11,127,Wunderground v.1.15,2013-01-05 22:54:00,
2013-01-05 12:59:00,72.2,67.1,30.03,NE,54,10.0,10.0,84,0.00,,,0.11,107,Wunderground v.1.15,2013-01-05 22:59:00,
2013-01-05 13:04:00,71.4,66.3,30.02,East,90,10.0,10.0,84,0.00,,,0.11,153,Wunderground v.1.15,2013-01-05 23:04:00,
2013-01-05 13:09:00,71.1,66.4,30.02,ESE,117,9.0,10.0,85,0.00,,,0.11,265,Wunderground v.1.15,2013-01-05 23:09:00,
2013-01-05 13:14:00,71.4,66.7,30.02,East,88,10.0,10.0,85,0.00,,,0.11,306,Wunderground v.1.15,2013-01-05 23:14:00,
2013-01-05 13:19:00,72.0,67.2,30.02,ESE,117,9.0,12.0,85,0.00,,,0.11,287,Wunderground v.1.15,2013-01-05 23:19:00,
2013-01-05 13:24:00,72.4,67.3,30.01,NE,49,9.0,12.0,84,0.00,,,0.11,366,Wunderground v.1.15,2013-01-05 23:24:00,
2013-01-05 13:29:00,72.6,67.1,30.01,ENE,59,10.0,10.0,83,0.00,,,0.11,443,Wunderground v.1.15,2013-01-05 23:29:00,
2013-01-05 13:34:00,72.8,67.3,30.00,ENE,74,12.0,12.0,83,0.00,,,0.11,381,Wunderground v.1.15,2013-01-05 23:34:00,
2013-01-05 13:39:00,72.7,67.2,30.00,ENE,66,9.0,12.0,83,0.00,,,0.11,406,Wunderground v.1.15,2013-01-05 23:39:00,
2013-01-05 13:44:00,73.1,68.3,30.00,East,82,8.0,13.0,85,0.00,,,0.11,828,Wunderground v.1.15,2013-01-05 23:44:00,
2013-01-05 13:54:00,73.9,68.1,29.99,ENE,63,10.0,14.0,82,0.00,,,0.11,552,Wunderground v.1.15,2013-01-05 23:54:00,
2013-01-05 13:59:00,73.9,68.1,29.98,ESE,113,9.0,11.0,82,0.00,,,0.11,554,Wunderground v.1.15,2013-01-05 23:59:00,
2013-01-05 14:04:00,74.0,67.8,29.98,ENE,78,10.0,11.0,81,0.00,,,0.11,561,Wunderground v.1.15,2013-01-06 00:04:00,
2013-01-05 14:09:00,74.0,67.8,29.98,NE,41,10.0,16.0,81,0.00,,,0.11,250,Wunderground v.1.15,2013-01-06 00:09:00,
2013-01-05 14:14:00,73.9,68.1,29.97,ENE,65,9.0,16.0,82,0.00,,,0.11,128,Wunderground v.1.15,2013-01-06 00:14:00,
2013-01-05 14:19:00,73.6,67.4,29.97,East,82,10.0,11.0,81,0.00,,,0.11,90,Wunderground v.1.15,2013-01-06 00:19:00,
2013-01-05 14:24:00,73.2,67.7,29.98,ESE,113,13.0,13.0,83,0.00,,,0.12,76,Wunderground v.1.15,2013-01-06 00:24:00,
2013-01-05 14:29:00,71.8,67.0,29.97,ESE,121,13.0,13.0,85,0.14,,,0.13,121,Wunderground v.1.15,2013-01-06 00:29:00,
2013-01-05 14:34:00,70.7,66.3,29.98,ESE,103,11.0,13.0,86,0.07,,,0.13,156,Wunderground v.1.15,2013-01-06 00:34:00,
2013-01-05 14:39:00,70.3,66.2,29.97,ENE,62,11.0,11.0,87,0.04,,,0.13,174,Wunderground v.1.15,2013-01-06 00:39:00,
2013-01-05 14:44:00,70.6,66.5,29.97,East,88,9.0,13.0,87,0.00,,,0.13,183,Wunderground v.1.15,2013-01-06 00:44:00,
2013-01-05 14:49:00,70.8,66.7,29.98,ESE,118,8.0,16.0,87,0.00,,,0.13,179,Wunderground v.1.15,2013-01-06 00:49:00,
2013-01-05 14:54:00,71.0,66.9,29.98,East,88,9.0,16.0,87,0.00,,,0.13,264,Wunderground v.1.15,2013-01-06 00:54:00,
2013-01-05 15:04:00,71.3,66.9,29.98,ESE,105,9.0,9.0,86,0.00,,,0.13,127,Wunderground v.1.15,2013-01-06 01:04:00,
2013-01-05 15:14:00,71.8,67.4,29.98,East,87,10.0,11.0,86,0.00,,,0.13,192,Wunderground v.1.15,2013-01-06 01:14:00,
2013-01-05 15:19:00,71.6,67.2,29.98,East,86,10.0,10.0,86,0.00,,,0.13,139,Wunderground v.1.15,2013-01-06 01:19:00,
2013-01-05 15:24:00,71.4,66.7,29.98,ESE,107,9.0,10.0,85,0.00,,,0.13,109,Wunderground v.1.15,2013-01-06 01:24:00,
2013-01-05 15:29:00,71.3,66.6,29.98,ENE,76,9.0,9.0,85,0.00,,,0.13,111,Wunderground v.1.15,2013-01-06 01:29:00,
2013-01-05 15:34:00,71.4,66.7,29.98,ENE,57,8.0,9.0,85,0.00,,,0.13,47,Wunderground v.1.15,2013-01-06 01:34:00,
2013-01-05 15:39:00,71.6,66.8,29.98,East,95,7.0,11.0,85,0.00,,,0.13,21,Wunderground v.1.15,2013-01-06 01:39:00,
2013-01-05 15:49:00,71.2,66.8,29.99,ENE,73,11.0,11.0,86,0.00,,,0.13,100,Wunderground v.1.15,2013-01-06 01:49:00,
2013-01-05 15:54:00,70.7,66.6,29.98,East,101,9.0,11.0,87,0.00,,,0.13,128,Wunderground v.1.15,2013-01-06 01:54:00,
2013-01-05 15:59:00,70.7,67.0,29.99,East,93,7.0,9.0,88,0.00,,,0.13,125,Wunderground v.1.15,2013-01-06 01:59:00,
2013-01-05 16:04:00,70.9,67.2,29.99,East,85,8.0,9.0,88,0.00,,,0.13,137,Wunderground v.1.15,2013-01-06 02:04:00,
2013-01-05 16:14:00,71.1,67.4,29.99,ENE,67,7.0,10.0,88,0.00,,,0.13,60,Wunderground v.1.15,2013-01-06 02:14:00,
2013-01-05 16:24:00,71.2,67.1,29.99,East,90,8.0,8.0,87,0.00,,,0.13,39,Wunderground v.1.15,2013-01-06 02:24:00,
2013-01-05 16:29:00,71.3,67.2,29.99,East,88,9.0,9.0,87,0.00,,,0.13,39,Wunderground v.1.15,2013-01-06 02:29:00,
2013-01-05 16:34:00,71.5,67.1,29.99,ENE,60,8.0,9.0,86,0.00,,,0.13,14,Wunderground v.1.15,2013-01-06 02:34:00,
2013-01-05 16:39:00,71.7,67.6,29.99,NE,38,8.0,11.0,87,0.00,,,0.13,19,Wunderground v.1.15,2013-01-06 02:39:00,
2013-01-05 16:44:00,71.7,67.6,29.99,ENE,59,10.0,11.0,87,0.00,,,0.13,37,Wunderground v.1.15,2013-01-06 02:44:00,
2013-01-05 16:54:00,71.3,67.2,29.99,East,79,9.0,12.0,87,0.00,,,0.13,26,Wunderground v.1.15,2013-01-06 02:54:00,
2013-01-05 16:59:00,71.2,66.8,30.00,East,97,10.0,16.0,86,0.00,,,0.14,23,Wunderground v.1.15,2013-01-06 02:59:00,
2013-01-05 17:04:00,71.1,66.7,29.99,ESE,107,12.0,16.0,86,0.00,,,0.14,46,Wunderground v.1.15,2013-01-06 03:04:00,
2013-01-05 17:09:00,71.2,66.8,30.00,SE,133,11.0,11.0,86,0.00,,,0.14,70,Wunderground v.1.15,2013-01-06 03:09:00,
2013-01-05 17:14:00,71.4,67.0,30.00,ENE,69,10.0,11.0,86,0.00,,,0.14,53,Wunderground v.1.15,2013-01-06 03:14:00,
2013-01-05 17:24:00,71.6,67.2,30.00,ENE,66,10.0,11.0,86,0.00,,,0.14,26,Wunderground v.1.15,2013-01-06 03:24:00,
2013-01-05 17:29:00,71.6,67.5,30.00,ENE,77,9.0,9.0,87,0.00,,,0.14,19,Wunderground v.1.15,2013-01-06 03:29:00,
2013-01-05 17:34:00,71.4,67.0,30.00,ESE,119,10.0,15.0,86,0.00,,,0.14,9,Wunderground v.1.15,2013-01-06 03:34:00,
2013-01-05 17:39:00,71.3,66.6,30.00,East,101,10.0,10.0,85,0.00,,,0.14,12,Wunderground v.1.15,2013-01-06 03:39:00,
2013-01-05 17:44:00,71.4,67.0,30.00,ESE,106,9.0,10.0,86,0.00,,,0.14,11,Wunderground v.1.15,2013-01-06 03:44:00,
2013-01-05 17:49:00,71.6,67.2,30.00,East,85,9.0,9.0,86,0.00,,,0.14,5,Wunderground v.1.15,2013-01-06 03:49:00,
2013-01-05 17:54:00,71.8,67.4,30.00,SE,125,8.0,12.0,86,0.00,,,0.14,5,Wunderground v.1.15,2013-01-06 03:54:00,
2013-01-05 17:59:00,71.9,67.1,30.01,NE,53,9.0,10.0,85,0.00,,,0.14,5,Wunderground v.1.15,2013-01-06 03:59:00,
2013-01-05 18:04:00,71.9,66.8,30.00,ESE,119,10.0,11.0,84,0.00,,,0.14,0,Wunderground v.1.15,2013-01-06 04:04:00,
2013-01-05 18:09:00,71.9,66.8,30.01,East,92,10.0,11.0,84,0.00,,,0.14,0,Wunderground v.1.15,2013-01-06 04:09:00,
2013-01-05 18:14:00,71.9,66.5,30.01,East,87,12.0,14.0,83,0.00,,,0.14,0,Wunderground v.1.15,2013-01-06 04:14:00,
2013-01-05 18:19:00,72.0,66.6,30.02,ESE,107,10.0,10.0,83,0.00,,,0.14,0,Wunderground v.1.15,2013-01-06 04:19:00,
2013-01-05 18:24:00,72.0,66.6,30.01,East,98,9.0,15.0,83,0.00,,,0.14,0,Wunderground v.1.15,2013-01-06 04:24:00,
2013-01-05 18:34:00,72.3,66.8,30.01,East,98,11.0,15.0,83,0.00,,,0.14,0,Wunderground v.1.15,2013-01-06 04:34:00,
2013-01-05 18:39:00,72.4,66.9,30.01,ESE,115,11.0,11.0,83,0.00,,,0.14,0,Wunderground v.1.15,2013-01-06 04:39:00,
2013-01-05 18:49:00,72.5,66.7,30.01,ENE,71,11.0,12.0,82,0.00,,,0.14,0,Wunderground v.1.15,2013-01-06 04:49:00,
2013-01-05 18:54:00,72.5,66.7,30.01,East,85,11.0,12.0,82,0.00,,,0.14,0,Wunderground v.1.15,2013-01-06 04:54:00,
2013-01-05 18:59:00,72.6,66.8,30.01,North,11,10.0,11.0,82,0.00,,,0.14,0,Wunderground v.1.15,2013-01-06 04:59:00,
2013-01-05 19:04:00,72.5,66.7,30.02,ENE,71,11.0,11.0,82,0.00,,,0.14,0,Wunderground v.1.15,2013-01-06 05:04:00,
2013-01-05 19:09:00,72.3,66.8,30.02,ENE,77,11.0,11.0,83,0.00,,,0.14,0,Wunderground v.1.15,2013-01-06 05:09:00,
2013-01-05 19:14:00,72.2,66.7,30.02,ESE,109,8.0,11.0,83,0.00,,,0.14,0,Wunderground v.1.15,2013-01-06 05:14:00,
2013-01-05 19:19:00,72.3,67.2,30.02,East,83,8.0,9.0,84,0.00,,,0.14,0,Wunderground v.1.15,2013-01-06 05:19:00,
2013-01-05 19:24:00,72.3,67.2,30.03,NE,47,9.0,21.0,84,0.00,,,0.14,0,Wunderground v.1.15,2013-01-06 05:24:00,
2013-01-05 19:29:00,72.1,67.0,30.03,ENE,71,10.0,10.0,84,0.00,,,0.14,0,Wunderground v.1.15,2013-01-06 05:29:00,
2013-01-05 19:34:00,72.0,66.9,30.03,East,82,11.0,11.0,84,0.00,,,0.14,0,Wunderground v.1.15,2013-01-06 05:34:00,
2013-01-05 19:39:00,72.0,67.2,30.03,ENE,69,9.0,9.0,85,0.00,,,0.14,0,Wunderground v.1.15,2013-01-06 05:39:00,
2013-01-05 19:44:00,71.9,67.1,30.03,NE,45,8.0,12.0,85,0.00,,,0.14,0,Wunderground v.1.15,2013-01-06 05:44:00,
2013-01-05 19:49:00,72.1,67.3,30.03,East,90,9.0,10.0,85,0.00,,,0.14,0,Wunderground v.1.15,2013-01-06 05:49:00,
2013-01-05 19:59:00,72.2,67.1,30.04,ESE,104,9.0,9.0,84,0.00,,,0.14,0,Wunderground v.1.15,2013-01-06 05:59:00,
2013-01-05 20:04:00,72.3,67.2,30.04,East,82,9.0,16.0,84,0.00,,,0.14,0,Wunderground v.1.15,2013-01-06 06:04:00,
2013-01-05 20:09:00,72.5,67.4,30.04,East,82,10.0,10.0,84,0.00,,,0.14,0,Wunderground v.1.15,2013-01-06 06:09:00,
2013-01-05 20:19:00,72.4,67.3,30.05,ENE,69,9.0,11.0,84,0.00,,,0.14,0,Wunderground v.1.15,2013-01-06 06:19:00,
2013-01-05 20:24:00,72.2,67.1,30.05,East,94,8.0,11.0,84,0.00,,,0.14,0,Wunderground v.1.15,2013-01-06 06:24:00,
2013-01-05 20:29:00,72.1,67.0,30.06,ENE,76,8.0,11.0,84,0.00,,,0.14,0,Wunderground v.1.15,2013-01-06 06:29:00,
2013-01-05 20:34:00,72.0,66.9,30.05,East,90,9.0,11.0,84,0.00,,,0.14,0,Wunderground v.1.15,2013-01-06 06:34:00,
2013-01-05 20:39:00,72.0,67.2,30.05,ENE,75,8.0,8.0,85,0.00,,,0.14,0,Wunderground v.1.15,2013-01-06 06:39:00,
2013-01-05 20:49:00,72.1,66.6,30.05,ENE,78,10.0,15.0,83,0.00,,,0.14,0,Wunderground v.1.15,2013-01-06 06:49:00,
2013-01-05 20:54:00,72.5,67.0,30.05,ENE,66,10.0,15.0,83,0.00,,,0.14,0,Wunderground v.1.15,2013-01-06 06:54:00,
2013-01-05 20:59:00,72.6,66.8,30.06,NE,36,10.0,15.0,82,0.00,,,0.14,0,Wunderground v.1.15,2013-01-06 06:59:00,
2013-01-05 21:09:00,72.6,66.4,30.06,East,87,10.0,14.0,81,0.00,,,0.14,0,Wunderground v.1.15,2013-01-06 07:09:00,
2013-01-05 21:14:00,72.7,66.5,30.06,East,93,9.0,14.0,81,0.00,,,0.14,0,Wunderground v.1.15,2013-01-06 07:14:00,
2013-01-05 21:24:00,72.7,66.5,30.06,ENE,73,7.0,10.0,81,0.00,,,0.14,0,Wunderground v.1.15,2013-01-06 07:24:00,
2013-01-05 21:29:00,72.6,66.4,30.06,East,94,8.0,9.0,81,0.00,,,0.14,0,Wunderground v.1.15,2013-01-06 07:29:00,
2013-01-05 21:34:00,72.7,66.9,30.06,ESE,105,10.0,10.0,82,0.00,,,0.14,0,Wunderground v.1.15,2013-01-06 07:34:00,
2013-01-05 21:39:00,72.6,66.8,30.06,ESE,109,9.0,10.0,82,0.00,,,0.14,0,Wunderground v.1.15,2013-01-06 07:39:00,
2013-01-05 21:44:00,72.4,66.9,30.06,ESE,112,8.0,10.0,83,0.00,,,0.14,0,Wunderground v.1.15,2013-01-06 07:44:00,
2013-01-05 21:49:00,72.3,66.8,30.06,East,95,8.0,8.0,83,0.00,,,0.14,0,Wunderground v.1.15,2013-01-06 07:49:00,
2013-01-05 21:59:00,72.2,66.4,30.06,ENE,67,9.0,14.0,82,0.00,,,0.14,0,Wunderground v.1.15,2013-01-06 07:59:00,
2013-01-05 22:09:00,72.2,66.0,30.06,SE,129,10.0,15.0,81,0.00,,,0.14,0,Wunderground v.1.15,2013-01-06 08:09:00,
2013-01-05 22:14:00,72.3,66.5,30.06,East,82,9.0,15.0,82,0.00,,,0.14,0,Wunderground v.1.15,2013-01-06 08:14:00,
2013-01-05 22:19:00,72.3,66.8,30.06,East,82,9.0,11.0,83,0.00,,,0.14,0,Wunderground v.1.15,2013-01-06 08:19:00,
2013-01-05 22:24:00,72.3,66.8,30.06,East,96,9.0,11.0,83,0.00,,,0.14,0,Wunderground v.1.15,2013-01-06 08:24:00,
2013-01-05 22:29:00,72.2,66.7,30.06,ENE,71,8.0,9.0,83,0.00,,,0.14,0,Wunderground v.1.15,2013-01-06 08:29:00,
2013-01-05 22:34:00,71.9,66.5,30.06,ESE,112,8.0,9.0,83,0.00,,,0.14,0,Wunderground v.1.15,2013-01-06 08:34:00,
2013-01-05 22:39:00,71.7,66.6,30.06,ESE,110,6.0,8.0,84,0.00,,,0.14,0,Wunderground v.1.15,2013-01-06 08:39:00,
2013-01-05 22:44:00,71.5,66.8,30.06,East,88,6.0,8.0,85,0.00,,,0.14,0,Wunderground v.1.15,2013-01-06 08:44:00,
2013-01-05 22:49:00,71.5,66.8,30.06,East,93,5.0,10.0,85,0.00,,,0.14,0,Wunderground v.1.15,2013-01-06 08:49:00,
2013-01-05 22:54:00,71.6,66.8,30.06,NE,47,5.0,11.0,85,0.00,,,0.14,0,Wunderground v.1.15,2013-01-06 08:54:00,
2013-01-05 23:04:00,71.9,66.5,30.05,ENE,59,8.0,12.0,83,0.00,,,0.14,0,Wunderground v.1.15,2013-01-06 09:04:00,
2013-01-05 23:09:00,72.2,67.1,30.05,NE,52,8.0,8.0,84,0.00,,,0.14,0,Wunderground v.1.15,2013-01-06 09:09:00,
2013-01-05 23:19:00,71.8,66.0,30.05,ENE,71,8.0,11.0,82,0.00,,,0.14,0,Wunderground v.1.15,2013-01-06 09:19:00,
2013-01-05 23:24:00,71.7,65.9,30.05,East,96,7.0,11.0,82,0.00,,,0.14,0,Wunderground v.1.15,2013-01-06 09:24:00,
2013-01-05 23:29:00,71.8,66.4,30.05,East,96,7.0,7.0,83,0.00,,,0.14,0,Wunderground v.1.15,2013-01-06 09:29:00,
2013-01-05 23:34:00,71.7,66.3,30.05,East,98,7.0,7.0,83,0.00,,,0.14,0,Wunderground v.1.15,2013-01-06 09:34:00,
2013-01-05 23:39:00,71.7,66.6,30.05,East,86,7.0,7.0,84,0.00,,,0.14,0,Wunderground v.1.15,2013-01-06 09:39:00,
2013-01-05 23:44:00,71.7,66.6,30.05,NE,47,7.0,19.0,84,0.00,,,0.14,0,Wunderground v.1.15,2013-01-06 09:44:00,
2013-01-05 23:49:00,71.9,66.8,30.05,East,90,9.0,10.0,84,0.00,,,0.14,0,Wunderground v.1.15,2013-01-06 09:49:00,
2013-01-05 23:54:00,72.0,66.6,30.04,ESE,109,10.0,10.0,83,0.00,,,0.14,0,Wunderground v.1.15,2013-01-06 09:54:00,
2013-01-05 23:59:00,72.0,66.6,30.04,ESE,109,9.0,9.0,83,0.00,,,0.00,0,Wunderground v.1.15,2013-01-06 09:59:00,